Location: Burbank
(38.7788°N, 114.0429°W)
Time: 20:43:48
(UTC+00:00)

Vanguard 2 - Pass Details

Date: 12 May 2026
Orbit: 553 x 2894 km, 32.9° (Epoch: 6 June)

Event Time Altitude Azimuth Distance (km) Brightness Sun altitude
Rises 14:01:17 0° 272° (W) 6,557 11.7 16.8°
Reaches altitude 10° 14:06:03 10° 270° (W) 5,340 11.3 17.7°
Maximum altitude 14:20:35 60° 196° (SSW) 2,150 9.9 20.5°
Drops below altitude 10° 14:29:36 10° 119° (ESE) 3,437 11.9 22.2°
Sets 14:32:01 0° 116° (ESE) 4,152 12.2 22.7°
